Regional Weather Roundup
Issued by NWS

Home | Current Version | Previous Version | Graphics & Text | Print | Product List | Glossary On
Versions: 1 2 3 4 5 6 7 8 9 10 11 12 13 14 15 16 17 18 19 20 21 22 23 24 25 26 27 28 29 30 31 32 33 34 35 36 37 38 39 40 41 42 43 44 45 46 47 48 49 50
504
ASUS45 KBOU 180810
RWRCO

WEATHER ROUNDUP FOR COLORADO
NATIONAL WEATHER SERVICE DENVER/BOULDER CO
100 AM MST MON DEC 18 2017

NOTE: "FAIR" INDICATES FEW OR NO CLOUDS BELOW 12000 FEET WITH NO
SIGNIFICANT WEATHER AND/OR OBSTRUCTIONS TO VISIBILITY.

COZ001>005-013-030-031-180900-
...NORTHWEST COLORADO...

CITY           SKY/WX    TMP DP  RH WIND       PRES   REMARKS
CRAIG          FAIR      10   6  84 CALM      30.20R
HAYDEN         FAIR      18  14  84 E9        30.19R WCI   7
MEEKER         MOCLDY    17  13  84 CALM      30.18R
RABBIT EARS PA FAIR     N/A N/A N/A W13G20    30.09S
STEAMBOAT SPGS MOCLDY    16  14  92 CALM      30.18R
WALDEN         FAIR      14   7  73 SE9       30.10F WCI   2
$$

COZ006>008-011-180900-
...WEST CENTRAL VALLEYS...

CITY           SKY/WX    TMP DP  RH WIND       PRES   REMARKS
GRAND JUNCTION FAIR      25  10  53 E3        30.18R
MONTROSE       FAIR      19   6  57 S7        30.19S WCI  10
EAGLE          FAIR      12   6  77 E5        30.22R WCI   4
RIFLE          FAIR      18   8  65 S3        30.20R
DELTA          FAIR      19   4  50 NW3       30.20R
NUCLA          FAIR      23   1  39 SE6       30.19S WCI  16
$$

COZ017>023-064>068-180900-
...SOUTHWEST COLORADO...

CITY           SKY/WX    TMP DP  RH WIND       PRES   REMARKS
DURANGO        FAIR      14   2  58 NE3       30.11F
CORTEZ         FAIR      14   3  61 E6        30.13S WCI   5
PAGOSA SPRINGS FAIR      20   4  49 CALM      30.13F
TELLURIDE      FAIR      21   3  44 SE7       30.15S WCI  13
WOLF CREEK PAS FAIR      18   1  49 SW14      30.19F WCI   4
$$

COZ009-010-012-014-032>034-037-058>063-180900-
...CENTRAL COLORADO...

CITY           SKY/WX    TMP DP  RH WIND       PRES   REMARKS
ASPEN          FAIR      11   4  73 S3        30.14R
BUENA VISTA    FAIR      28   4  37 NW13G26   30.05S WCI  17
COPPER MTN     NOT AVBL
BERTHOUD PASS  HAZE       9  -4  56 N23G31    30.07R VSB<1/4 WCI -12
COTTONWOOD PAS FAIR      32   5  32 W15G24    30.06S WCI  22
GUNNISON       FAIR       7   0  73 CALM      30.18R
KREMMLING      FAIR       9   3  78 CALM      30.20R
LEADVILLE      FAIR      11  -1  58 N8        30.09S WCI  -1
MONARCH PASS   FAIR      14   3  62 W35       30.19R WCI  -8
SALIDA         FAIR      32   4  30 W9        30.13S WCI  24
SUNLIGHT       FAIR      14   7  73 SW9       30.18R WCI   2
WILKERSON PASS FAIR      21  -4  33 W9G20     30.06S WCI  11
$$

COZ069>075-180900-
...SAN LUIS VALLEY/SANGRE DE CRISTO MOUNTAINS...

CITY           SKY/WX    TMP DP  RH WIND       PRES   REMARKS
ALAMOSA        FAIR      11   7  84 CALM      30.12S
DEL NORTE      FAIR      23   4  43 SW12      30.12S WCI  12
LA VETA PASS   FAIR      25   5  42 S35G48      N/A  WCI   7
SAGUACHE       FAIR      23   3  42 NW14      30.13R WCI  11
$$

COZ035-036-038>040-180900-
...NORTHERN COLORADO FRONT RANGE...

CITY           SKY/WX    TMP DP  RH WIND       PRES   REMARKS
DENVER INTL AP FAIR      26  19  74 NW6       29.95R WCI  19
DMNS CITY PARK NOT AVBL
AURORA         CLEAR     18  13  79 NE6       29.95R WCI  10
FRONT RANGE AP FAIR      24  19  83 S6        29.95R WCI  17
ERIE MUNI ARPT FAIR      18  16  93 CALM      30.02R
BOULDER MUN AP FAIR      27  23  86 CALM      29.96S
CENTENNIAL     FAIR      23  15  71 SE5       29.94R WCI  17
BROOMFIELD     FAIR      28  25  86 N6        29.96R WCI  22
FORT COLLINS   FAIR      22  20  92 N3        29.97S
LONGMONT       FAIR      22  18  87 CALM      29.99R
$$

COZ041-046-047-076>085-087-088-180900-
...PIKES PEAK/PALMER DIVIDE AND SOUTHERN FOOTHILLS...

CITY           SKY/WX    TMP DP  RH WIND       PRES   REMARKS
COLO. SPRINGS  FAIR      20  16  84 N6        29.95F WCI  12
A. F. ACADEMY  FAIR      14   8  77 N7        29.93F WCI   3
SCHRIEVER AFB  FAIR      23  18  82 N6        29.95F WCI  15
CHEYENNE MTN   FAIR      33   5  30 NW5       29.89F WCI  29
ELLICOTT         N/A    N/A N/A N/A NE3       29.94S
FALCON         FAIR      20   7  56 N3        29.95S
FORT CARSON    FAIR      19  16  87 N9        29.93F WCI   9
LIMON          FAIR       6   4  91 N8        29.95S WCI  -7
MONUMENT HILL  FAIR      25   7  46 SW10      29.96R WCI  15
CANON CITY     FAIR      28  16  59 W7        29.95S WCI  21
WALSENBURG     FAIR      39   9  28 W14       29.98F
TRINIDAD       FAIR      31  13  47 W12       29.98F WCI  22
$$

COZ042>045-048>051-090-091-180900-
...NORTHEAST COLORADO...

CITY           SKY/WX    TMP DP  RH WIND       PRES   REMARKS
GREELEY ARPT   FAIR      16  13  88 NW8       29.98S WCI   5
AKRON          FAIR      26  19  74 SW10      29.95S WCI  16
BURLINGTON     FAIR      19  17  92 SW10      29.97F WCI   7
WRAY           FAIR      21  19  93 W5        29.98S WCI  15
YUMA           FAIR      23  19  86 W8        29.96S WCI  14
STERLING       FAIR      19  18  93 S3        29.97F
HOLYOKE        FAIR      21  18  86 W8        29.97S WCI  12
FORT MORGAN    FAIR      20  18  93 W5        29.98R WCI  14
$$

COZ086-089-092>099-180900-
...SOUTHEAST COLORADO...

CITY           SKY/WX    TMP DP  RH WIND       PRES   REMARKS
PUEBLO         FAIR      16  12  84 CALM      29.97F
LA JUNTA       FAIR      20  18  92 SW6       30.00S WCI  12
LAMAR          FAIR      11   8  88 SW9       29.98S WCI  -2
SPRINGFIELD      N/A     18  17  96 SW5       29.95F WCI  11
$$




USA.gov is the U.S. government's official web portal to all federal, state and local government web resources and services.